CW9181 Weather Reports


time (UTC)temp
F
wind
direction
speed
knots
gust
knots
rain 1hr
in
rain 24hr
in
rain mn
in
humidity
%
barometer
mb
20260509145049 62 101 3.5 6.1 0.00 0.00 0.00 76 1014.6
20260509144033 61 158 3.5 5.2 0.00 0.00 0.00 78 1014.7
20260509143031 60 118 2.6 4.3 0.00 0.00 0.00 79 1014.7
20260509142034 59 149 3.5 7.8 0.00 0.00 0.00 82 1014.6
20260509141033 58 163 1.7 5.2 0.00 0.00 0.00 84 1014.5
20260509140033 57 127 2.6 5.2 0.00 0.00 0.00 85 1014.4
20260509135034 57 118 0.9 2.6 0.00 0.00 0.00 86 1014.3
20260509134034 57 111 0.0 3.5 0.00 0.00 0.00 86 1014.5
20260509133031 56 139 0.9 3.5 0.00 0.00 0.00 86 1014.4
20260509132035 56 105 0.9 2.6 0.00 0.00 0.00 86 1014.3
20260509131034 56 123 1.7 4.3 0.00 0.00 0.00 85 1014.2
20260509130033 57 104 0.9 2.6 0.00 0.00 0.00 85 1014.3
20260509125034 57 107 1.7 2.6 0.00 0.00 0.00 85 1014.2
20260509124019 57 115 0.9 2.6 0.00 0.00 0.00 84 1014.2
20260509123025 57 108 0.9 2.6 0.00 0.00 0.00 84 1014.1
20260509122024 57 140 1.7 2.6 0.00 0.00 0.00 84 1014.1
20260509121026 57 124 0.0 2.6 0.00 0.00 0.00 84 1014.1
20260509120046 57 155 1.7 2.6 0.00 0.00 0.00 84 1013.9
20260509115024 58 164 0.9 3.5 0.00 0.00 0.00 84 1013.9
20260509114027 58 174 0.9 2.6 0.00 0.00 0.00 84 1013.9
20260509113031 58 168 1.7 6.1 0.00 0.00 0.00 83 1013.8
20260509112031 58 172 1.7 5.2 0.00 0.00 0.00 84 1013.9
20260509111033 58 164 0.9 3.5 0.00 0.00 0.00 84 1013.9
20260509110035 58 155 2.6 4.3 0.00 0.00 0.00 84 1013.8
20260509105017 59 150 1.7 4.3 0.00 0.00 0.00 84 1013.8
20260509104056 59 132 2.6 5.2 0.00 0.00 0.00 84 1013.9
20260509103056 59 120 0.9 3.5 0.00 0.00 0.00 84 1013.9
20260509102018 59 142 0.0 3.5 0.00 0.00 0.00 84 1014.0
20260509101036 59 151 0.9 2.6 0.00 0.00 0.00 84 1014.0
20260509100018 60 137 0.9 3.5 0.00 0.00 0.00 84 1014.0
20260509095021 60 136 1.7 3.5 0.00 0.00 0.00 84 1014.0
20260509094040 60 145 1.7 3.5 0.00 0.00 0.00 83 1014.0
20260509093021 60 135 1.7 3.5 0.00 0.00 0.00 83 1014.1
20260509092025 60 161 0.9 2.6 0.00 0.00 0.00 82 1014.2
20260509091023 60 141 0.9 3.5 0.00 0.00 0.00 82 1014.1
20260509090024 61 163 1.7 4.3 0.00 0.00 0.00 82 1014.2
20260509085027 61 172 1.7 3.5 0.00 0.00 0.00 82 1014.2
20260509084025 61 157 1.7 4.3 0.00 0.00 0.00 82 1014.3
20260509083028 62 157 1.7 3.5 0.00 0.00 0.00 82 1014.2
20260509082030 62 149 1.7 4.3 0.00 0.00 0.00 82 1014.3
20260509081031 62 154 2.6 5.2 0.00 0.00 0.00 82 1014.4
20260509080034 63 122 2.6 4.3 0.00 0.00 0.00 82 1014.4
20260509075018 63 145 1.7 4.3 0.00 0.00 0.00 81 1014.4
20260509074022 63 132 0.9 4.3 0.00 0.00 0.00 81 1014.5
20260509073023 64 117 2.6 5.2 0.00 0.00 0.00 80 1014.5
20260509072026 64 112 1.7 4.3 0.00 0.00 0.00 80 1014.4
20260509071025 64 128 0.9 3.5 0.00 0.00 0.00 79 1014.2
20260509070040 64 170 1.7 3.5 0.00 0.00 0.00 77 1014.1
20260509065026 65 143 1.7 6.1 0.00 0.00 0.00 77 1014.2
20260509064047 65 149 2.6 5.2 0.00 0.00 0.00 77 1014.2
20260509063025 65 147 1.7 5.2 0.00 0.00 0.00 76 1014.1
20260509062023 66 146 1.7 5.2 0.00 0.00 0.00 75 1014.2
20260509061020 66 144 2.6 6.1 0.00 0.00 0.00 75 1014.2
20260509060021 67 176 1.7 5.2 0.00 0.00 0.00 75 1014.3
20260509055020 67 157 2.6 5.2 0.00 0.00 0.00 75 1014.3
20260509054020 68 151 1.7 4.3 0.00 0.00 0.00 75 1014.2
20260509053020 68 164 1.7 3.5 0.00 0.00 0.00 74 1014.2
20260509052034 68 147 1.7 4.3 0.00 0.00 0.00 73 1014.1
20260509051034 69 144 0.0 2.6 0.00 0.00 0.00 72 1014.1
20260509050035 69 181 1.7 2.6 0.00 0.00 0.00 71 1014.2
20260509045029 70 193 0.9 3.5 0.00 0.00 0.00 69 1014.2
20260509044045 71 154 1.7 5.2 0.00 0.00 0.00 69 1014.1
20260509043022 71 174 1.7 3.5 0.00 0.00 0.00 69 1014.0
20260509042020 72 199 1.7 5.2 0.00 0.00 0.00 68 1013.7
20260509041041 73 145 0.0 0.0 0.00 0.00 0.00 66 1013.6
20260509040022 73 186 0.0 3.5 0.00 0.00 0.00 65 1013.5
20260509035020 74 203 0.9 5.2 0.00 0.00 0.00 63 1013.4
20260509034020 75 186 0.0 4.3 0.00 0.00 0.00 62 1013.4
20260509033020 76 215 1.7 4.3 0.00 0.00 0.00 61 1013.3
20260509032015 77 191 1.7 7.0 0.00 0.00 0.00 59 1013.3
20260509031035 78 172 2.6 6.1 0.00 0.00 0.00 57 1013.3
20260509030039 80 222 1.7 5.2 0.00 0.00 0.00 55 1013.2
20260509025033 81 224 2.6 5.2 0.00 0.00 0.00 52 1013.0
20260509024033 82 306 0.9 3.5 0.00 0.00 0.00 44 1012.9
20260509023048 83 304 0.0 3.5 0.00 0.00 0.00 42 1012.9
20260509022026 84 356 1.7 4.3 0.00 0.00 0.00 42 1012.9
20260509021043 84 336 2.6 7.0 0.00 0.00 0.00 41 1012.9
20260509020035 84 309 2.6 4.3 0.00 0.00 0.00 40 1012.9
20260509015015 84 3 2.6 6.1 0.00 0.00 0.00 41 1013.0
20260509014014 85 329 2.6 7.0 0.00 0.00 0.00 41 1013.1
20260509013019 85 289 1.7 5.2 0.00 0.00 0.00 40 1013.2
20260509012055 86 274 2.6 5.2 0.00 0.00 0.00 39 1013.2
20260509011033 86 281 1.7 7.8 0.00 0.00 0.00 35 1013.2
20260509010031 86 299 3.5 7.8 0.00 0.00 0.00 38 1013.3
20260509005033 86 324 3.5 7.8 0.00 0.00 0.00 37 1013.4
20260509004030 86 307 1.7 7.8 0.00 0.00 0.00 36 1013.4
20260509003027 87 330 4.3 8.7 0.00 0.00 0.00 36 1013.6
20260509002026 86 324 2.6 7.0 0.00 0.00 0.00 40 1013.7
20260509001026 86 274 2.6 4.3 0.00 0.00 0.00 40 1013.7
20260509000024 86 347 2.6 6.1 0.00 0.00 0.00 39 1013.6
20260508235020 86 329 2.6 5.2 0.00 0.00 0.00 40 1013.8
20260508234021 86 226 2.6 5.2 0.00 0.00 0.00 38 1014.0
20260508233023 86 10 4.3 6.1 0.00 0.00 0.00 43 1013.9
20260508232018 85 350 2.6 7.8 0.00 0.00 0.00 42 1014.0
20260508231037 85 16 0.9 7.0 0.00 0.00 0.00 44 1014.3
20260508230037 85 286 2.6 7.8 0.00 0.00 0.00 43 1014.4
20260508225055 85 265 1.7 4.3 0.00 0.00 0.00 44 1014.5
20260508223801 84 177 1.7 7.0 0.00 0.00 0.00 45 1014.8
20260508222759 84 231 4.3 7.8 0.00 0.00 0.00 44 1015.0
20260508221815 84 221 2.6 7.0 0.00 0.00 0.00 46 1014.9
20260508220816 83 254 4.3 7.0 0.00 0.00 0.00 45 1015.2
20260508215816 83 331 2.6 7.0 0.00 0.00 0.00 46 1015.3
20260508214810 82 322 2.6 7.0 0.00 0.00 0.00 48 1015.4
20260508213810 81 291 1.7 7.0 0.00 0.00 0.00 47 1015.8
20260508212803 80 241 1.7 7.0 0.00 0.00 0.00 50 1015.9
20260508211820 79 311 0.9 4.3 0.00 0.00 0.00 52 1015.9
20260508210817 79 307 2.6 5.2 0.00 0.00 0.00 52 1016.1
20260508205813 78 228 3.5 8.7 0.00 0.00 0.00 53 1016.3
20260508204829 78 280 1.7 10.4 0.00 0.00 0.00 53 1016.3
20260508203808 78 254 3.5 7.8 0.00 0.00 0.00 56 1016.5
20260508202811 78 244 1.7 6.1 0.00 0.00 0.00 53 1016.6
20260508201826 77 308 2.6 6.1 0.00 0.00 0.00 54 1016.8
20260508200805 77 238 2.6 5.2 0.00 0.00 0.00 56 1016.7
20260508195804 76 104 1.7 5.2 0.00 0.00 0.00 57 1016.7
20260508194759 76 342 1.7 7.0 0.00 0.00 0.00 57 1016.9
20260508193803 75 265 2.6 4.3 0.00 0.00 0.00 59 1017.1
20260508192803 74 214 1.7 5.2 0.00 0.00 0.00 61 1017.2
20260508191758 75 186 1.7 5.2 0.00 0.00 0.00 58 1017.2
20260508190800 74 7 1.7 5.2 0.00 0.00 0.00 59 1017.3
20260508185804 72 189 2.6 7.8 0.00 0.00 0.00 62 1017.4
20260508184823 72 168 1.7 6.1 0.00 0.00 0.00 63 1017.5
20260508183804 71 260 1.7 7.0 0.00 0.00 0.00 64 1017.6
20260508182802 71 176 1.7 6.1 0.00 0.00 0.00 64 1017.5
20260508181815 70 177 2.6 6.1 0.00 0.00 0.00 66 1017.6
20260508180819 69 162 3.5 7.0 0.00 0.00 0.00 68 1017.7
20260508175800 69 278 1.7 7.0 0.00 0.00 0.00 69 1017.8
20260508174758 68 180 3.5 8.7 0.00 0.00 0.00 70 1017.6
20260508173800 67 172 3.5 7.8 0.00 0.00 0.00 72 1017.8
20260508172802 66 108 1.7 7.0 0.00 0.00 0.00 72 1017.8
20260508171758 66 182 1.7 7.0 0.00 0.00 0.00 72 1018.0
20260508170758 66 149 2.6 6.1 0.00 0.00 0.00 72 1018.1
20260508165800 65 183 2.6 7.0 0.00 0.00 0.00 74 1018.0
20260508164813 64 121 1.7 7.0 0.00 0.00 0.00 75 1017.9
20260508163808 64 189 2.6 6.1 0.00 0.00 0.00 76 1017.9
20260508162811 63 107 5.2 7.8 0.00 0.00 0.00 75 1017.8
20260508161828 62 228 2.6 4.3 0.00 0.00 0.00 77 1017.9
20260508160829 62 157 3.5 7.0 0.00 0.00 0.00 78 1017.9
20260508155810 61 130 3.5 7.8 0.00 0.00 0.00 80 1017.9
20260508154828 60 137 3.5 6.1 0.00 0.00 0.00 82 1018.0
20260508153807 59 122 3.5 7.0 0.00 0.00 0.00 82 1018.1
20260508152828 58 191 4.3 7.0 0.00 0.00 0.00 83 1018.0
20260508151805 58 171 3.5 7.0 0.00 0.00 0.00 85 1017.9
20260508150806 57 132 1.7 7.0 0.00 0.00 0.00 85 1017.9
20260508145808 57 114 2.6 7.0 0.00 0.00 0.00 86 1018.0